Find NOAA 12

NORAD ID: 21263 Int'l Des: 1991-032 Owner: NOAA Country: US operational
LEOCIRCULARRETROGRADESSO

当前视图

正在加载3D地球...

关于 NOAA 12

正在加载描述...

即将过境

Passes for default location (London). Set your location on the main map for personalized predictions.

高度历史

Loading altitude history...

两行轨道根数

1 21263U 91032A 26146.24744949 .00000075 00000-0 49086-4 0 9994
2 21263 98.6196 135.0769 0014859 92.4431 267.8451 14.26738009821831
Epoch: May 26, 2026 • Age: 11 hours

当前状态

高度 833.9 km
速度 7.43 km/s
星下点 -57.62°S, 160.24°E
发射日期 May 14, 1991
运行时间 35 years
类型 weather

技术详情

分类 Payload
质量 685.00 kg
干质量 685.00 kg
总质量 1418.00 kg
长度 3.70 m
直径 1.90 m
跨度 4.90 m
形状 Box + Pan
制造商 GEEW
平台类型 Tiros N
阶段状态 In Orbit
所有者/国家 NOAA/US

Most Searched